Time,TemperatureF,DewpointF,PressureIn,WindDirection,WindDirectionDegrees,WindSpeedMPH,WindSpeedGustMPH,Humidity,HourlyPrecipIn,Conditions,Clouds,dailyrainin,SolarRadiationWatts/m^2,SoftwareType,DateUTC
2013-02-28 00:00:00,60.9,57.3,29.94,SSE,154,0.0,3.0,88,0.00,,---,0.00,0.00,VWS V14.00,2013-02-28 05:00:00,
2013-02-28 00:30:00,59.8,55.9,29.94,SSE,155,3.0,4.0,87,0.00,,---,0.00,0.00,VWS V14.00,2013-02-28 05:30:00,
2013-02-28 01:00:00,58.5,53.7,29.95,SSW,198,1.0,6.0,84,0.00,,---,0.00,0.00,VWS V14.00,2013-02-28 06:00:00,
2013-02-28 01:30:00,57.5,52.4,29.95,SW,233,2.0,5.0,83,0.00,,---,0.00,0.00,VWS V14.00,2013-02-28 06:30:00,
2013-02-28 02:00:00,56.3,50.9,29.93,West,262,4.0,7.0,82,0.00,,---,0.00,0.00,VWS V14.00,2013-02-28 07:00:00,
2013-02-28 02:30:00,55.5,50.8,29.93,West,264,1.0,7.0,84,0.00,,---,0.00,0.00,VWS V14.00,2013-02-28 07:30:00,
2013-02-28 03:00:00,54.7,50.3,29.93,West,264,0.0,7.0,85,0.00,,---,0.00,0.00,VWS V14.00,2013-02-28 08:00:00,
2013-02-28 03:30:00,54.2,50.1,29.94,West,264,3.0,7.0,86,0.00,,---,0.00,0.00,VWS V14.00,2013-02-28 08:30:00,
2013-02-28 04:00:00,53.9,49.8,29.93,West,272,2.0,9.0,86,0.00,,---,0.00,0.00,VWS V14.00,2013-02-28 09:00:00,
2013-02-28 04:30:00,53.8,50.0,29.93,West,272,1.0,5.0,87,0.00,,---,0.00,0.00,VWS V14.00,2013-02-28 09:30:00,
2013-02-28 05:00:00,54.6,51.1,29.93,West,272,1.0,7.0,88,0.00,,---,0.00,0.00,VWS V14.00,2013-02-28 10:00:00,
2013-02-28 05:30:00,54.5,50.7,29.95,West,273,0.0,8.0,87,0.00,,---,0.00,0.00,VWS V14.00,2013-02-28 10:30:00,
2013-02-28 06:00:00,54.9,50.8,29.96,West,273,5.0,10.0,86,0.00,,---,0.00,0.00,VWS V14.00,2013-02-28 11:00:00,
2013-02-28 06:30:00,55.1,50.4,29.97,West,275,0.0,8.0,84,0.00,,---,0.00,0.00,VWS V14.00,2013-02-28 11:30:00,
2013-02-28 07:00:00,55.2,50.8,29.97,West,275,2.0,7.0,85,0.00,,---,0.00,25.00,VWS V14.00,2013-02-28 12:00:00,
2013-02-28 07:30:00,55.5,51.1,29.97,West,275,2.0,7.0,85,0.00,,---,0.00,51.00,VWS V14.00,2013-02-28 12:30:00,
2013-02-28 08:00:00,56.1,51.3,29.99,West,271,1.0,8.0,84,0.00,,---,0.00,84.00,VWS V14.00,2013-02-28 13:00:00,
2013-02-28 08:30:00,56.6,50.8,30.00,West,281,3.0,10.0,81,0.00,,---,0.00,44.00,VWS V14.00,2013-02-28 13:30:00,
2013-02-28 09:00:00,57.5,51.7,30.00,West,281,1.0,8.0,81,0.00,,---,0.00,179.00,VWS V14.00,2013-02-28 14:00:00,
2013-02-28 09:30:00,58.9,51.7,30.01,West,279,7.0,8.0,77,0.00,,---,0.00,158.00,VWS V14.00,2013-02-28 14:30:00,
2013-02-28 10:00:00,60.5,50.7,30.01,West,276,1.0,9.0,70,0.00,,---,0.00,165.00,VWS V14.00,2013-02-28 15:00:00,
2013-02-28 10:30:00,62.6,50.7,30.00,West,279,2.0,10.0,65,0.00,,---,0.00,673.00,VWS V14.00,2013-02-28 15:30:00,
2013-02-28 11:00:00,66.7,50.0,29.99,West,279,2.0,7.0,55,0.00,,---,0.00,761.00,VWS V14.00,2013-02-28 16:00:00,
2013-02-28 11:30:00,70.4,50.3,29.98,West,277,0.0,7.0,49,0.00,,---,0.00,779.00,VWS V14.00,2013-02-28 16:30:00,
2013-02-28 12:00:00,72.1,48.4,29.96,West,279,0.0,8.0,43,0.00,,---,0.00,796.00,VWS V14.00,2013-02-28 17:00:00,
2013-02-28 12:30:00,73.3,47.5,29.95,West,271,2.0,7.0,40,0.00,,---,0.00,793.00,VWS V14.00,2013-02-28 17:30:00,
2013-02-28 13:00:00,73.9,46.7,29.93,SW,225,2.0,6.0,38,0.00,,---,0.00,786.00,VWS V14.00,2013-02-28 18:00:00,
2013-02-28 13:30:00,73.8,49.3,29.92,West,265,1.0,9.0,42,0.00,,---,0.00,745.00,VWS V14.00,2013-02-28 18:30:00,
2013-02-28 14:00:00,74.1,48.3,29.91,West,269,0.0,8.0,40,0.00,,---,0.00,686.00,VWS V14.00,2013-02-28 19:00:00,
2013-02-28 14:30:00,74.2,48.3,29.90,West,277,1.0,9.0,40,0.00,,---,0.00,631.00,VWS V14.00,2013-02-28 19:30:00,
2013-02-28 15:00:00,73.2,48.1,29.89,WNW,283,2.0,11.0,41,0.00,,---,0.00,568.00,VWS V14.00,2013-02-28 20:00:00,
2013-02-28 15:30:00,73.5,47.0,29.89,WNW,283,1.0,9.0,39,0.00,,---,0.00,473.00,VWS V14.00,2013-02-28 20:30:00,
2013-02-28 16:00:00,72.9,49.1,29.88,West,281,3.0,9.0,43,0.00,,---,0.00,376.00,VWS V14.00,2013-02-28 21:00:00,
2013-02-28 16:30:00,72.9,50.9,29.88,West,281,1.0,9.0,46,0.00,,---,0.00,272.00,VWS V14.00,2013-02-28 21:30:00,
2013-02-28 17:00:00,72.5,52.3,29.88,West,281,0.0,5.0,49,0.00,,---,0.00,56.00,VWS V14.00,2013-02-28 22:00:00,
2013-02-28 17:30:00,69.9,52.5,29.88,West,281,0.0,5.0,54,0.00,,---,0.00,40.00,VWS V14.00,2013-02-28 22:30:00,
2013-02-28 18:00:00,67.2,53.3,29.89,West,281,0.0,2.0,61,0.00,,---,0.00,5.00,VWS V14.00,2013-02-28 23:00:00,
2013-02-28 18:30:00,65.7,53.6,29.90,West,281,0.0,2.0,65,0.00,,---,0.00,0.00,VWS V14.00,2013-02-28 23:30:00,
2013-02-28 19:00:00,64.8,53.6,29.91,West,281,0.0,0.0,67,0.00,,---,0.00,0.00,VWS V14.00,2013-03-01 00:00:00,
2013-02-28 19:30:00,63.4,52.3,29.92,West,281,0.0,3.0,67,0.00,,---,0.00,0.00,VWS V14.00,2013-03-01 00:30:00,
2013-02-28 20:00:00,62.5,51.8,29.94,West,270,0.0,2.0,68,0.00,,---,0.00,0.00,VWS V14.00,2013-03-01 01:00:00,
2013-02-28 20:30:00,61.6,52.1,29.94,West,270,0.0,1.0,71,0.00,,---,0.00,0.00,VWS V14.00,2013-03-01 01:30:00,
2013-02-28 20:50:00,64.0,52.0,29.93,West,280,0.0,8.0,65,0.00,,---,0.00,0.00,VWS V14.00,2013-03-01 01:50:00,
2013-02-28 21:00:00,62.5,51.8,29.94,West,281,1.0,2.0,68,0.00,,---,0.00,0.00,VWS V14.00,2013-03-01 02:00:00,
2013-02-28 21:30:00,61.6,52.1,29.94,West,281,0.0,0.0,71,0.00,,---,0.00,0.00,VWS V14.00,2013-03-01 02:30:00,
2013-02-28 22:00:00,60.2,51.9,29.94,West,280,0.0,0.0,74,0.00,,---,0.00,0.00,VWS V14.00,2013-03-01 03:00:00,
2013-02-28 22:30:00,58.7,51.5,29.93,West,281,0.0,0.0,77,0.00,,---,0.00,0.00,VWS V14.00,2013-03-01 03:30:00,
2013-02-28 23:00:00,59.0,52.2,29.93,West,281,0.0,2.0,78,0.00,,---,0.00,0.00,VWS V14.00,2013-03-01 04:00:00,
2013-02-28 23:30:00,60.5,52.5,29.93,West,280,2.0,7.0,75,0.00,,---,0.00,0.00,VWS V14.00,2013-03-01 04:30:00,